Datos meteoreol�gicos.
Lugar de muestreo: Estaci�n de Fotobiolog�a Playa Uni�n (EFPU) en Playa Uni�n, Chubut, Argentina (-43.311263, -65.040969).
Datos aportados al Sistema Nacional de Datos del Mar.
Fecha,Temperatura_Max,Humedad_Max,Vel.Viento_Km/h_Max,Temperatura_Min,Humedad_Min,Vel.Viento_Km/h_Min,Temperatura_Prom,Humedad_Prom,Vel.Viento_Km/h_Prom,Direcci�n_Viento
2010-01-01,24.9,85.0,52.2,13.7,21.0,7.2,18.7,43.3,23.8,S
2010-01-02,34.6,36.0,56.5,17.2,17.0,0.0,26.7,23.7,21.8,W
2010-01-03,30.6,77.0,33.8,19.8,21.0,0.0,23.8,39.0,15.1,ENE
2010-01-04,31.8,87.0,39.2,17.5,21.0,0.0,23.1,46.0,16.3,NE
2010-01-05,21.2,86.0,46.8,13.6,20.0,0.0,17.7,53.3,18.7,S
2010-01-06,21.7,85.0,50.0,13.0,24.0,10.4,17.0,37.8,24.5,SW
2010-01-07,29.4,82.0,40.7,12.2,16.0,4.3,19.7,36.2,17.3,W
2010-01-08,29.3,32.0,54.4,15.8,0.0,8.3,22.1,22.3,22.7,SW
2010-01-09,30.3,34.0,43.2,13.8,16.0,0.0,22.1,23.0,18.4,W
2010-01-10,26.1,53.0,108.0,12.4,15.0,7.6,18.6,32.9,24.0,WSW
2010-01-11,32.4,88.0,60.5,14.3,13.0,4.3,22.5,33.7,25.5,WSW
2010-01-12,22.8,27.0,85.0,14.5,16.0,12.6,18.9,21.5,38.8,SW
2010-01-13,26.9,45.0,69.5,15.5,20.0,11.2,20.7,25.6,28.1,SW
2010-01-14,27.7,45.0,46.1,15.9,21.0,0.0,21.7,29.7,23.5,WSW
2010-01-15,31.9,53.0,104.0,15.2,16.0,5.0,23.3,26.2,16.4,WSW
2010-01-16,34.5,89.0,47.5,16.7,17.0,0.0,23.9,34.7,13.8,NW
2010-01-17,28.6,74.0,52.9,16.1,14.0,5.0,23.6,23.5,23.1,WSW
2010-01-18,29.1,45.0,46.8,15.8,16.0,0.0,23.4,25.8,20.0,WSW
2010-01-19,30.6,37.0,44.6,15.7,16.0,0.0,22.9,24.8,18.2,WSW
2010-01-20,34.7,33.0,56.5,19.7,16.0,0.0,27.3,23.1,23.7,WSW
2010-01-21,25.9,80.0,52.2,17.8,22.0,7.6,20.2,38.6,25.9,SW
2010-01-22,33.7,88.0,40.7,16.1,15.0,0.0,21.9,52.2,16.8,NW
2010-01-23,27.7,85.0,35.6,16.2,23.0,0.0,20.9,48.9,16.4,SW
2010-01-24,28.9,44.0,67.3,16.5,14.0,6.5,22.2,28.1,20.2,W
2010-01-25,34.5,60.0,55.8,12.7,11.0,7.2,24.4,27.7,22.5,NNW
2010-01-26,30.5,86.0,49.7,17.5,19.0,0.0,21.7,48.9,18.3,SW
2010-01-27,33.8,88.0,28.4,14.6,18.0,0.0,21.3,64.9,14.0,NNW
2010-01-28,34.0,85.0,41.4,18.6,14.0,5.8,25.1,43.6,19.6,W
2010-01-29,25.6,83.0,68.8,13.2,20.0,0.0,18.6,37.0,24.7,WSW
2010-01-30,21.7,50.0,32.4,8.2,22.0,0.0,15.2,29.6,18.7,ENE
2010-01-31,29.7,65.0,44.6,14.2,16.0,0.0,22.7,32.4,20.6,NNW
2010-02-01,27.4,59.0,38.5,15.7,17.0,5.8,20.2,31.1,18.1,WSW
2010-02-02,23.6,86.0,52.2,12.4,29.0,5.0,17.9,47.5,20.1,NE
2010-02-03,22.6,87.0,75.6,14.9,16.0,10.4,18.8,35.0,34.1,WSW
2010-02-04,25.9,26.0,56.5,12.2,20.0,6.5,18.3,23.3,23.8,NW
2010-02-05,29.6,88.0,37.8,15.5,19.0,0.0,20.7,38.6,18.0,W
2010-02-06,32.6,62.0,56.5,12.7,15.0,0.0,23.8,28.9,21.3,WNW
2010-02-07,25.9,33.0,57.6,19.9,15.0,9.7,23.1,21.8,27.2,WSW
2010-02-08,28.6,27.0,72.7,18.1,20.0,10.4,22.6,22.8,32.4,WSW
2010-02-09,31.3,32.0,87.1,16.6,13.0,8.3,22.6,22.6,36.9,WSW
2010-02-10,25.3,26.0,66.6,12.0,15.0,6.5,19.0,20.1,27.1,WSW
2010-02-11,24.1,83.0,45.4,14.2,20.0,0.0,17.6,38.1,19.9,ENE
2010-02-12,27.6,88.0,43.2,13.1,26.0,5.8,20.2,62.4,19.5,NNW
2010-02-13,20.2,85.0,56.9,11.2,26.0,0.0,16.6,46.4,22.9,SSW
2010-02-14,21.0,80.0,38.5,9.1,29.0,6.5,14.1,48.3,17.8,ESE
2010-02-15,17.7,60.0,33.8,9.5,34.0,0.0,13.3,44.5,16.4,SE
2010-02-16,14.7,94.0,46.1,9.6,40.0,4.3,12.8,77.5,22.1,NE
2010-02-17,22.3,87.0,54.4,13.3,77.0,9.7,17.5,82.3,29.2,NNE
2010-02-18,28.6,88.0,56.5,13.5,20.0,0.0,21.4,53.3,17.5,W
2010-02-19,27.3,88.0,50.8,13.3,21.0,0.0,19.1,58.0,17.0,W
2010-02-20,22.3,88.0,37.1,12.9,43.0,0.0,16.8,77.6,15.9,ENE
2010-02-21,21.8,87.0,47.5,16.0,42.0,9.0,18.3,79.7,23.7,NE
2010-02-22,20.8,87.0,42.8,13.9,28.0,5.8,17.2,60.4,18.2,NNE
2010-02-23,17.1,89.0,50.8,11.6,29.0,0.0,14.6,54.7,21.5,SSE
2010-02-24,18.8,83.0,27.7,9.0,36.0,5.8,13.7,51.2,18.5,WSW
2010-02-25,29.9,89.0,23.4,10.7,21.0,0.0,18.5,61.4,12.7,NE
2010-02-26,21.8,90.0,28.4,16.2,33.0,0.0,18.4,61.0,13.9,SE
2010-02-27,23.4,89.0,38.5,13.0,24.0,0.0,18.4,68.0,18.4,ENE
2010-02-28,37.3,89.0,39.2,15.5,16.0,0.0,24.9,44.6,15.1,NW
2010-03-01,21.3,88.0,38.5,16.2,35.0,9.0,18.4,70.2,23.6,SSE
2010-03-02,28.8,87.0,31.7,16.3,32.0,0.0,20.5,69.0,14.7,ENE
2010-03-03,22.1,87.0,46.8,15.2,62.0,0.0,17.2,82.9,21.2,SSE
2010-03-04,17.2,80.0,34.6,15.1,79.0,7.6,16.1,79.5,17.8,SSE
2010-03-05,17.2,79.0,26.3,17.2,79.0,0.0,17.2,79.0,10.8,SE
2010-03-06,17.2,79.0,15.1,17.2,79.0,5.8,17.2,79.0,10.7,E
2010-03-08,20.0,88.0,34.6,15.0,35.0,0.0,17.6,57.1,11.1,ENE
2010-03-09,22.5,85.0,22.7,14.9,33.0,0.0,17.5,73.5,9.6,NE
2010-03-10,19.1,83.0,63.4,12.8,45.0,0.0,15.9,73.8,22.0,SSE
2010-03-11,19.1,87.0,55.1,8.2,39.0,0.0,14.0,61.4,17.5,SSE
2010-03-12,13.4,87.0,32.4,9.8,64.0,7.2,11.5,80.6,15.9,NW
2010-05-21,14.8,92.0,14.4,11.4,39.0,0.0,12.6,77.1,9.1,NNE
2010-05-22,13.0,86.0,32.4,5.7,75.0,0.0,10.5,79.3,15.2,S
2010-05-23,17.7,87.0,32.4,7.7,38.0,0.0,11.2,73.5,13.6,WSW
2010-05-24,20.5,88.0,28.8,6.9,28.0,0.0,12.6,57.3,12.6,WSW
2010-05-25,13.0,83.0,32.4,7.2,31.0,0.0,9.6,42.4,15.9,S
2010-05-26,10.1,91.0,32.4,3.9,39.0,0.0,7.4,62.7,13.9,SSW
2010-05-27,13.2,95.0,90.0,0.1,0.0,0.0,8.1,42.6,30.2,NNE
2010-05-28,14.3,0.0,97.2,6.6,0.0,7.2,11.5,0.0,42.5,W
2010-05-29,16.1,0.0,32.4,1.3,0.0,0.0,8.2,0.0,12.6,W
2010-05-30,11.2,0.0,54.0,2.3,0.0,0.0,7.6,0.0,16.2,SSE
2010-05-31,19.1,0.0,36.0,1.3,0.0,7.2,10.0,0.0,15.6,NNW
2010-06-01,19.2,0.0,39.6,2.6,0.0,0.0,9.7,0.0,11.5,NW
2010-06-02,14.7,0.0,28.8,5.4,0.0,0.0,10.1,0.0,13.6,WNW
2010-06-03,16.1,0.0,28.8,2.2,0.0,3.6,7.4,0.0,14.6,W
2010-06-04,16.8,0.0,28.8,3.9,0.0,0.0,9.8,0.0,14.0,W
2010-06-05,20.7,0.0,43.2,9.3,0.0,10.8,15.6,0.0,22.0,W
2010-06-06,16.4,0.0,57.6,5.1,0.0,7.2,12.7,0.0,24.3,SW
2010-06-07,11.8,0.0,36.0,0.7,0.0,3.6,5.4,0.0,16.5,W
2010-06-08,14.5,0.0,18.0,-3.5,0.0,3.6,3.4,0.0,11.7,W
2010-06-09,13.4,0.0,50.4,-0.5,0.0,7.2,6.5,0.0,21.4,NNW
2010-06-10,11.9,0.0,61.2,8.2,0.0,14.4,9.9,0.0,34.0,NNW
2010-06-11,12.9,0.0,64.8,9.6,0.0,7.2,10.9,0.0,34.5,NNW
2010-06-12,20.2,0.0,43.2,8.9,0.0,0.0,13.4,0.0,20.1,W
2010-06-13,17.4,0.0,39.6,8.3,0.0,7.2,11.7,0.0,18.4,NNW
2010-06-14,11.4,0.0,39.6,8.5,0.0,0.0,10.0,0.0,18.4,NNW
2010-06-15,10.4,0.0,50.4,5.2,0.0,7.2,7.4,0.0,23.4,S
2010-06-16,6.6,0.0,21.6,-1.0,0.0,3.6,4.4,0.0,11.7,SSW
2010-06-17,6.1,0.0,28.8,-3.7,0.0,3.6,1.0,0.0,12.8,SW
2010-06-18,3.8,0.0,28.8,-4.9,0.0,0.0,-1.1,0.0,12.6,W
2010-06-19,6.4,0.0,36.0,-4.3,0.0,0.0,0.5,0.0,14.2,W
2010-06-20,5.4,0.0,50.4,-3.4,0.0,7.2,2.3,0.0,21.0,SSW
2010-06-21,8.3,0.0,18.0,-5.8,0.0,0.0,0.8,0.0,8.7,W
2010-06-22,11.9,0.0,36.0,0.1,0.0,3.6,5.7,0.0,15.9,NW
2010-06-23,14.9,0.0,46.8,6.3,0.0,0.0,11.4,0.0,19.1,W
2010-06-24,11.7,0.0,54.0,6.1,0.0,7.2,8.8,0.0,29.6,W
2010-06-25,13.5,0.0,32.4,1.9,0.0,0.0,7.7,0.0,14.7,W
2010-06-26,13.0,0.0,32.4,1.4,0.0,3.6,7.0,0.0,15.0,W
2010-06-27,17.4,0.0,54.0,2.9,0.0,7.2,10.1,0.0,19.3,WNW
2010-06-28,20.4,0.0,46.8,12.0,0.0,7.2,15.9,0.0,25.9,WNW
2010-06-29,18.3,0.0,39.6,6.7,0.0,0.0,14.4,0.0,16.8,W
2010-06-30,14.8,0.0,50.4,3.0,0.0,0.0,8.6,0.0,19.6,NNW
2010-07-01,18.7,0.0,43.2,5.2,0.0,7.2,13.1,0.0,19.8,W
2010-07-02,13.6,0.0,39.6,-0.2,0.0,7.2,5.8,0.0,12.8,W
2010-07-03,16.0,0.0,21.6,1.6,0.0,0.0,7.6,0.0,10.3,WNW
2010-07-04,6.3,0.0,25.2,1.7,0.0,0.0,3.7,0.0,11.7,NW
2010-07-05,10.4,0.0,32.4,9.4,0.0,10.8,9.8,0.0,20.2,W
2010-07-06,12.6,0.0,54.0,5.4,0.0,0.0,9.7,0.0,24.3,NNW
2010-07-07,11.9,0.0,39.6,5.6,0.0,3.6,8.0,0.0,17.4,NNW
2010-07-08,8.2,0.0,39.6,2.2,0.0,3.6,5.3,0.0,14.6,W
2010-07-09,11.3,0.0,36.0,1.3,0.0,0.0,5.4,0.0,17.3,W
2010-07-12,8.1,0.0,64.8,2.5,0.0,14.4,6.2,0.0,32.2,SSW
2010-07-13,8.2,0.0,54.0,4.4,0.0,10.8,6.1,0.0,26.9,SSW
2010-07-14,7.0,0.0,54.0,2.5,0.0,10.8,5.5,0.0,26.5,SSE
2010-07-15,5.9,0.0,25.2,-1.2,0.0,0.0,2.0,0.0,14.5,W
2010-07-16,10.2,0.0,21.6,-4.2,0.0,3.6,1.8,0.0,10.9,WNW
2010-07-17,13.6,0.0,21.6,-1.9,0.0,0.0,4.1,0.0,11.3,WNW
2010-07-18,13.9,0.0,46.8,-1.2,0.0,0.0,6.1,0.0,20.6,NNW
2010-07-19,13.5,0.0,43.2,0.9,0.0,0.0,6.2,0.0,14.0,NW
2010-07-20,9.1,0.0,36.0,1.2,0.0,3.6,6.8,0.0,18.2,S
2010-07-21,7.6,0.0,25.2,3.8,0.0,0.0,6.2,0.0,13.4,S
2010-07-22,11.1,0.0,36.0,0.7,0.0,3.6,4.6,0.0,14.6,WSW
2010-07-23,12.7,0.0,18.0,-0.5,0.0,0.0,4.6,0.0,8.5,WNW
2010-07-24,9.4,0.0,14.4,-1.2,0.0,0.0,4.9,0.0,7.4,W
2010-07-25,13.1,0.0,32.4,0.6,0.0,0.0,6.3,0.0,13.2,W
2010-07-26,13.7,0.0,25.2,1.5,0.0,7.2,7.7,0.0,15.1,W
2010-07-27,15.8,0.0,50.4,4.0,0.0,7.2,10.0,0.0,16.9,W
2010-07-29,17.2,0.0,25.2,3.1,0.0,0.0,10.8,0.0,9.3,NW
2010-07-30,13.4,0.0,39.6,0.8,0.0,0.0,5.5,0.0,14.2,S
2010-07-31,5.6,0.0,57.6,0.4,0.0,10.8,3.0,0.0,26.3,SSW
2010-08-01,3.4,0.0,32.4,2.8,0.0,10.8,3.2,0.0,21.9,SW
2010-08-02,5.6,0.0,25.2,-3.4,0.0,0.0,1.9,0.0,11.5,S
2010-08-03,11.4,0.0,21.6,-5.7,0.0,0.0,1.5,0.0,11.2,W
2010-08-04,11.8,0.0,43.2,-3.2,0.0,3.6,4.2,0.0,19.3,NNW
2010-08-05,9.7,0.0,57.6,0.2,0.0,7.2,6.4,0.0,31.5,NNW
2010-08-06,15.0,0.0,54.0,-0.5,0.0,7.2,7.9,0.0,21.7,W
2010-08-07,15.2,0.0,32.4,0.4,0.0,0.0,6.7,0.0,14.5,W
2010-08-08,15.5,0.0,46.8,0.6,0.0,7.2,7.9,0.0,19.4,W
2010-08-09,17.7,0.0,43.2,3.7,0.0,7.2,10.1,0.0,18.7,W
2010-08-10,19.6,0.0,28.8,1.0,0.0,7.2,9.2,0.0,13.9,W
2010-08-11,19.0,0.0,43.2,4.3,0.0,7.2,10.7,0.0,17.6,W
2010-08-12,9.7,0.0,43.2,1.3,0.0,7.2,6.6,0.0,21.4,S
2010-08-13,12.0,0.0,28.8,-3.5,0.0,3.6,4.1,0.0,13.6,W
2010-08-14,12.6,0.0,32.4,-2.2,0.0,7.2,5.6,0.0,16.4,NW
2010-08-15,12.8,0.0,61.2,2.1,0.0,10.8,7.7,0.0,27.4,NNW
2010-08-16,20.4,0.0,50.4,8.0,0.0,7.2,12.8,0.0,24.4,NNW
2010-08-17,19.8,0.0,54.0,10.7,0.0,7.2,14.5,0.0,23.0,NNW
2010-08-18,15.1,0.0,43.2,5.8,0.0,0.0,10.1,0.0,17.8,W
2010-08-19,14.9,0.0,43.2,3.5,0.0,0.0,8.2,0.0,16.2,WSW
2010-08-20,22.5,0.0,43.2,3.7,0.0,3.6,12.2,0.0,16.6,NW
2010-08-21,16.6,0.0,39.6,3.5,0.0,7.2,10.1,0.0,17.9,W
2010-08-22,17.0,0.0,28.8,1.6,0.0,0.0,9.7,0.0,12.8,WSW
2010-08-23,19.3,0.0,43.2,2.2,0.0,0.0,10.1,0.0,16.5,W
2010-08-24,19.1,0.0,36.0,8.0,0.0,7.2,13.7,0.0,18.3,WNW
2010-08-25,20.8,0.0,43.2,8.3,0.0,3.6,11.6,0.0,16.3,WNW
2010-08-26,18.9,0.0,75.6,12.2,0.0,10.8,16.8,0.0,29.8,WNW
2010-08-27,18.2,0.0,50.4,4.8,0.0,0.0,12.7,0.0,20.1,NNW
2010-08-28,15.4,0.0,50.4,3.3,0.0,7.2,10.1,0.0,21.6,SSW
2010-08-29,13.7,0.0,46.8,0.1,0.0,7.2,6.3,0.0,18.2,W
2010-08-30,19.7,0.0,61.2,8.1,0.0,14.4,12.4,0.0,32.7,NNW
2010-08-31,10.2,0.0,39.6,-0.1,0.0,0.0,5.6,0.0,14.7,WSW
2010-09-01,15.1,0.0,25.2,-3.2,0.0,0.0,3.7,0.0,12.4,W
2010-09-02,18.7,0.0,50.4,7.6,0.0,10.8,13.9,0.0,25.8,NW
2010-09-03,16.4,0.0,36.0,4.4,0.0,0.0,9.6,0.0,14.4,SSE
2010-09-04,17.6,0.0,50.4,3.1,0.0,7.2,10.2,0.0,20.8,W
2010-09-05,9.5,0.0,28.8,2.2,0.0,10.8,5.7,0.0,15.9,W
2010-09-06,16.7,0.0,21.6,8.4,0.0,7.2,10.4,0.0,12.6,ENE
2010-09-07,17.5,0.0,39.6,6.8,0.0,3.6,10.8,0.0,18.5,NNE
2010-09-08,14.7,0.0,21.6,6.2,0.0,0.0,9.0,0.0,9.8,E
2010-09-09,15.4,0.0,21.6,7.6,0.0,0.0,9.8,0.0,11.0,ESE
2010-09-10,16.9,0.0,21.6,5.8,0.0,0.0,11.2,0.0,9.5,ENE
2010-09-11,16.7,0.0,32.4,6.0,0.0,0.0,10.0,0.0,13.0,SW
2010-09-12,12.1,0.0,25.2,8.4,0.0,7.2,9.2,0.0,14.0,SE
2010-09-13,20.3,0.0,32.4,8.0,0.0,7.2,13.1,0.0,15.3,NNW
2010-09-14,20.1,0.0,39.6,8.2,0.0,3.6,13.7,0.0,15.2,W
2010-09-15,16.0,0.0,39.6,4.5,0.0,0.0,10.6,0.0,15.5,WSW
2010-09-16,13.8,0.0,43.2,2.9,0.0,0.0,7.8,0.0,16.2,W
2010-09-17,19.2,0.0,43.2,2.3,0.0,7.2,10.6,0.0,19.3,W
2010-09-18,18.9,0.0,39.6,9.3,0.0,0.0,14.6,0.0,16.7,NW
2010-09-19,21.9,0.0,54.0,5.0,0.0,7.2,14.8,0.0,18.5,W
2010-09-20,17.7,0.0,36.0,1.8,0.0,7.2,11.3,0.0,16.7,W
2010-09-21,18.1,0.0,46.8,7.5,0.0,3.6,12.0,0.0,19.2,WSW
2010-09-22,14.1,0.0,32.4,6.0,0.0,7.2,9.8,0.0,18.2,WSW
2010-09-23,19.9,0.0,39.6,2.4,0.0,3.6,11.9,0.0,15.7,W
2010-09-24,23.0,0.0,28.8,2.3,0.0,0.0,10.9,0.0,12.0,W
2010-09-25,14.1,0.0,25.2,5.0,0.0,0.0,9.9,0.0,10.6,SE
2010-09-26,14.1,0.0,32.4,2.1,0.0,3.6,8.4,0.0,13.9,WSW
2010-09-27,15.6,0.0,32.4,7.4,0.0,3.6,10.7,0.0,16.2,NE
2010-09-28,16.6,0.0,21.6,9.8,0.0,0.0,11.4,0.0,10.5,WNW
2010-09-29,14.2,0.0,25.2,7.9,0.0,7.2,10.6,0.0,16.6,SE
2010-09-30,9.8,0.0,28.8,3.6,0.0,7.2,8.2,0.0,17.2,SE
2010-10-01,20.2,0.0,28.8,1.2,0.0,7.2,11.2,0.0,14.2,W
2010-10-02,11.1,0.0,21.6,8.2,0.0,7.2,9.8,0.0,13.7,W
2010-10-03,21.8,0.0,28.8,11.7,0.0,3.6,16.8,0.0,14.4,NNE
2010-10-04,19.6,0.0,36.0,8.3,0.0,0.0,12.5,0.0,16.8,WSW
2010-10-05,15.2,0.0,32.4,8.4,0.0,0.0,10.5,0.0,14.8,NE
2010-10-06,22.4,0.0,43.2,7.8,0.0,0.0,13.0,0.0,13.3,NE
2010-10-07,20.5,0.0,36.0,6.0,0.0,0.0,12.4,0.0,14.3,WSW
2010-10-08,15.8,0.0,36.0,5.8,0.0,0.0,11.6,0.0,18.2,SSW
2010-10-09,27.6,0.0,43.2,4.9,0.0,7.2,16.2,0.0,22.8,NNW
2010-10-10,31.1,0.0,32.4,13.0,0.0,7.2,22.8,0.0,17.1,NW
2010-10-11,28.8,0.0,32.4,10.7,0.0,7.2,17.5,0.0,18.1,NW
2010-10-12,12.6,0.0,28.8,10.0,0.0,7.2,10.7,0.0,20.5,SSE
2010-10-13,16.5,0.0,64.8,8.7,0.0,10.8,12.3,0.0,31.5,NNW
2010-10-14,19.2,0.0,32.4,2.6,0.0,0.0,10.0,0.0,16.1,NNW
2010-10-15,15.4,0.0,32.4,6.0,0.0,0.0,9.9,0.0,15.4,NW
2010-10-16,19.2,0.0,36.0,6.2,0.0,0.0,10.8,0.0,15.8,NW
2010-10-17,20.9,0.0,61.2,5.5,0.0,3.6,13.9,0.0,23.3,NW
2010-10-18,24.6,0.0,46.8,9.3,0.0,0.0,17.5,0.0,18.5,NW
2010-10-19,29.4,0.0,43.2,12.2,0.0,0.0,21.6,0.0,19.8,NW
2010-10-20,23.6,0.0,43.2,8.2,0.0,7.2,15.7,0.0,19.0,NNW
2010-10-21,17.0,0.0,28.8,5.3,0.0,7.2,10.1,0.0,17.0,NNW
2010-10-22,24.7,0.0,61.2,5.4,0.0,7.2,14.6,0.0,27.8,NNW
2010-10-23,21.0,0.0,50.4,10.1,0.0,0.0,14.0,0.0,14.0,NNW
2010-10-24,20.0,0.0,25.2,10.1,0.0,7.2,14.1,0.0,13.2,NNW
2010-10-25,24.9,0.0,32.4,7.4,0.0,0.0,14.4,0.0,13.5,NNW
2010-10-26,21.3,0.0,50.4,9.7,0.0,7.2,15.9,0.0,18.4,NNW
2010-10-27,24.3,0.0,50.4,14.2,0.0,0.0,17.8,0.0,18.2,NNW
2010-10-28,25.5,0.0,46.8,13.1,0.0,0.0,18.8,0.0,19.3,NNW
2010-10-29,15.0,0.0,28.8,11.8,0.0,0.0,13.1,0.0,15.1,NNW
2010-10-30,15.5,0.0,50.4,9.9,0.0,10.8,12.1,0.0,25.3,NNW
2010-10-31,24.8,0.0,32.4,8.5,0.0,0.0,15.1,0.0,15.0,NNW
2010-11-01,23.9,0.0,32.4,12.5,0.0,0.0,16.9,0.0,14.5,NNW
2010-11-02,22.9,0.0,32.4,11.3,0.0,7.2,15.3,0.0,15.3,NNW
2010-11-03,16.3,0.0,28.8,11.0,0.0,0.0,12.2,0.0,14.4,NNW
2010-11-04,14.4,0.0,46.8,11.0,0.0,7.2,12.7,0.0,21.8,NNW
2010-11-05,16.9,0.0,25.2,7.3,0.0,0.0,13.1,0.0,12.8,NNW
2010-11-06,26.6,0.0,36.0,9.3,0.0,3.6,17.7,0.0,15.9,NNW
2010-11-07,19.0,0.0,68.4,7.3,0.0,3.6,13.8,0.0,25.6,NNW
2010-11-08,18.7,0.0,25.2,8.5,0.0,7.2,14.1,0.0,15.5,NNW
2010-11-09,13.4,0.0,46.8,6.5,0.0,0.0,11.1,0.0,18.1,NNW
2010-11-10,23.3,0.0,32.4,5.7,0.0,0.0,12.6,0.0,17.2,NNW
2010-11-11,28.1,0.0,57.6,9.0,0.0,7.2,18.7,0.0,27.3,NNW
2010-11-12,20.7,0.0,50.4,12.0,0.0,7.2,15.5,0.0,19.3,NNW
2010-11-13,20.4,0.0,36.0,11.2,0.0,3.6,14.3,0.0,17.0,NNW
2010-11-14,18.8,0.0,39.6,10.1,0.0,7.2,13.9,0.0,18.4,NNW
2010-11-15,22.3,0.0,46.8,7.7,0.0,3.6,15.2,0.0,21.7,NNW
2010-11-16,25.1,0.0,54.0,12.0,0.0,7.2,18.2,0.0,30.5,NNW
2010-11-17,30.0,0.0,36.0,15.8,0.0,0.0,19.2,0.0,15.2,NNW
2010-11-18,26.8,0.0,21.6,13.0,0.0,0.0,19.2,0.0,5.6,NNW
2010-11-19,27.1,0.0,43.2,15.5,0.0,0.0,19.4,0.0,7.3,SSW
2010-11-20,29.1,0.0,54.0,12.6,0.0,7.2,21.4,0.0,24.2,NNW
2010-11-21,19.9,0.0,36.0,11.2,0.0,0.0,15.5,0.0,19.7,E
2010-11-22,28.3,0.0,36.0,6.8,0.0,0.0,19.3,0.0,15.9,NW
2010-11-23,30.8,0.0,39.6,15.8,0.0,3.6,23.0,0.0,19.6,WNW
2010-11-24,21.6,0.0,39.6,10.7,0.0,0.0,16.0,0.0,17.9,E
2010-11-25,23.5,0.0,21.6,11.0,0.0,3.6,16.0,0.0,13.6,SSE
2010-11-26,20.3,0.0,46.8,13.4,0.0,0.0,16.5,0.0,24.0,S
2010-11-27,14.9,0.0,32.4,12.4,0.0,14.4,13.0,0.0,23.5,S
2010-11-28,25.8,0.0,54.0,15.5,0.0,7.2,22.1,0.0,27.6,NE
2010-11-29,20.5,0.0,50.4,8.8,0.0,7.2,15.2,0.0,23.6,W
2010-11-30,24.7,0.0,39.6,5.8,0.0,7.2,16.3,0.0,20.8,WNW
2010-12-01,22.2,0.0,50.4,11.3,0.0,3.6,17.3,0.0,19.5,W
2010-12-02,19.5,0.0,39.6,8.0,0.0,0.0,13.5,0.0,20.3,W
2010-12-03,25.0,0.0,39.6,8.9,0.0,7.2,16.9,0.0,21.0,W
2010-12-04,21.0,0.0,54.0,11.9,0.0,7.2,16.7,0.0,23.2,W
2010-12-05,29.0,0.0,32.4,9.1,0.0,7.2,19.7,0.0,15.6,NNW
2010-12-06,30.4,0.0,50.4,18.3,0.0,0.0,23.7,0.0,19.1,W
2010-12-07,22.9,0.0,39.6,10.2,0.0,0.0,16.7,0.0,14.8,SW
2010-12-08,26.5,0.0,57.6,9.3,0.0,0.0,19.0,0.0,22.8,WNW
2010-12-09,25.2,0.0,54.0,15.0,0.0,0.0,18.6,0.0,22.3,NW
2010-12-10,25.1,0.0,57.6,10.5,0.0,0.0,15.8,0.0,16.5,NNE
2010-12-11,14.7,0.0,39.6,6.1,0.0,7.2,10.1,0.0,20.3,SW
2010-12-12,19.0,0.0,39.6,7.3,0.0,7.2,13.9,0.0,19.1,NW
2010-12-13,30.2,0.0,46.8,14.4,0.0,7.2,19.7,0.0,21.8,SSE
2010-12-14,25.4,0.0,61.2,12.2,0.0,0.0,17.9,0.0,22.9,SSE
2010-12-15,33.2,0.0,46.8,9.7,0.0,0.0,23.9,0.0,16.6,NW
2010-12-16,32.8,0.0,39.6,15.8,0.0,0.0,22.2,0.0,16.3,WNW
2010-12-17,19.5,0.0,50.4,9.7,0.0,7.2,14.9,0.0,21.2,SW
2010-12-18,23.6,0.0,39.6,7.4,0.0,7.2,16.3,0.0,18.1,NW
2010-12-19,25.7,0.0,43.2,14.4,0.0,7.2,20.3,0.0,23.5,WNW
2010-12-20,32.1,0.0,46.8,14.6,0.0,7.2,23.7,0.0,24.0,WNW
2010-12-21,24.9,0.0,36.0,15.2,0.0,7.2,19.8,0.0,20.5,WSW
2010-12-22,26.9,0.0,32.4,14.1,0.0,7.2,19.2,0.0,16.3,E
2010-12-23,27.6,0.0,39.6,15.8,0.0,0.0,21.5,0.0,17.5,E
2010-12-24,29.3,0.0,50.4,16.7,0.0,0.0,24.0,0.0,23.6,WNW
2010-12-25,31.8,0.0,39.6,18.4,0.0,7.2,24.4,0.0,18.8,WNW
2010-12-26,34.0,0.0,50.4,18.9,0.0,3.6,26.2,0.0,18.4,W
2010-12-27,27.2,0.0,32.4,17.5,0.0,7.2,21.9,0.0,17.1,WSW
2010-12-28,30.3,0.0,54.0,15.2,0.0,0.0,21.6,0.0,21.6,E
2010-12-29,32.0,0.0,36.0,17.7,0.0,3.6,21.9,0.0,17.9,NNE
2010-12-30,36.2,0.0,46.8,16.9,0.0,0.0,24.4,0.0,15.4,NNE
2010-12-31,31.3,0.0,21.6,18.0,0.0,0.0,22.1,0.0,8.0,E
